Regional Weather Roundup
Issued by NWS Midland/Odessa, TX

Skip options and go directly to product.
Home | Oldest Version | Previous Version | Current Version | All | Graphics & Text | Save Text | Print | Product List | Glossary On

Skip product version selection by date and time.   
944
ASUS44 KMAF 310810
RWRMAF
MIDLAND AREA WEATHER ROUNDUP
NATIONAL WEATHER SERVICE MIDLAND TX
300 AM CDT TUE MAR 31 2015

...IN SOUTHWEST TEXAS AND SOUTHEAST NEW MEXICO...

CITY           SKY/WX    TMP DP  RH WIND       PRES   REMARKS
ALPINE         CLOUDY    61  45  56 SW6       30.19S
ANDREWS        FAIR      60  56  88 S9        30.04F
ARTESIA        MOCLDY    54  50  87 CALM      30.07S
BIG SPRING     CLOUDY    65  56  71 S9        30.05S
CARLSBAD       MOCLDY    54  47  77 N5        30.04S
DRYDEN           N/A     64  59  83 N8        30.04S
FORT STOCKTON  CLOUDY    67  54  63 S14       30.04F
GUAD PASS      MOCLDY    65  28  24 SW12      30.17F
HOBBS          CLEAR     50  48  93 CALM      30.08S
MARFA          CLOUDY    55  43  62 N9        30.18S
MIDLAND AIRPK  CLOUDY    65  57  76 S7        30.03F
MIDLAND INTL   CLOUDY    64  57  78 S8        30.03F
ODESSA         CLOUDY    62  55  77 S7        30.04F
PECOS          CLOUDY    58  52  81 W5        30.02S
PRESIDIO       FAIR      72  50  47 N8        30.04F
SEMINOLE       MOCLDY    52  47  83 NW5       30.06F
SNYDER         MOCLDY    62  54  75 S7        30.02F
WINK           CLOUDY    62  56  80 SE7       30.01F
$$
...OTHER STATIONS IN TEXAS...

CITY           SKY/WX    TMP DP  RH WIND       PRES   REMARKS
ABILENE        MOCLDY    67  56  67 SW3       30.01S
AMARILLO       CLEAR     53  45  74 S8        30.03S
AUSTIN         CLOUDY    66  64  93 S10       30.05F
BROWNSVILLE    PTCLDY    68  67  96 SE8       30.06F
CORPUS CHRISTI PTCLDY    65  64  97 SE7       30.06F
DALLAS FTW     MOCLDY    66  62  87 S12       29.97F
DEL RIO        MOCLDY    68  63  84 E9        30.01F
EL PASO        PTCLDY    66  29  24 SE5       30.06S
HOUSTON INT    PTCLDY    66  63  90 S6        30.07F
LUBBOCK        PTCLDY    53  46  77 SW5       30.03F
SAN ANGELO     MOCLDY    67  61  81 S12       30.02F
SAN ANTONIO    CLOUDY    67  64  90 S12       30.07F
WACO           PTCLDY    66  62  87 S14       30.01F
WICHITA FALLS  NOT AVBL
$$
...OTHER LOCATIONS IN NEW MEXICO...

CITY           SKY/WX    TMP DP  RH WIND       PRES   REMARKS
ALAMAGORDO     PTCLDY    61  27  27 SE5       30.09S
ALBUQUERQUE    MOCLDY    59  24  26 CALM      30.15R
CANNON AFB     CLEAR     57  43  60 W14       30.07S
CLOVIS         CLEAR     48  39  71 W13       30.07R
HOLLOMAN AFB   CLOUDY    60  29  30 S3        30.07S
ROSWELL        PTCLDY    50  45  83 S6        30.05F
RUIDOSO        MOCLDY    54  27  35 SW5       30.25S
SANTA FE       CLEAR     46  22  38 N10       30.18S
TRUTH OR CONSE PTCLDY    59  27  29 NW8       30.11F
TUCUMCARI      CLEAR     55  39  54 W7        30.04S
$$

USA.gov is the U.S. government's official web portal to all federal, state and local government web resources and services.